Home > Time Zones > World Clock > Weather > Sweden > Lund > Past weeks

Flag for Sweden Weather past 2 weeks in Lund, Sweden

Now
55 °F

Sunny.


Feels Like: 52 °F
Forecast: 46 / 56 °F
Wind: 12 mph from Southwest

Location: Malmo / Sturup

Current Time: May 24, 2015 at 7:40:04 PM

Latest Report: May 24, 2015 at 6:50 PM


Visibility: 10 mi

Pressure: 30.04 "Hg

Humidity: 63%

Dew point: 43 °F

Location of LundLocation

Historic Weather in Lund — Graph

°F

Lund temperature yesterday

Maximum temperature yesterday: 55 °F (at 12:50 PM)
Minimum temperature yesterday: 48 °F (at 4:20 AM)
Average temperature yesterday: 52 °F

Past Weeks' High & Low Weather Summary

 TemperatureHumidityPressure
High61 °F (May 12, 11:50 AM)100% (May 10, 7:50 AM)30.33 "Hg (May 10, 7:50 AM)
Low34 °F (May 11, 5:20 AM)36% (May 15, 4:20 PM)29.53 "Hg (May 19, 4:20 AM)
Average50 °F77%29.96 "Hg
* Reported May 9 6:20 PM — May 24 6:20 PM, Lund, Weather by CustomWeather, © 2015

Note: Actual official high and low records may vary slightly from our data, if they occured in-between our weather recording intervals... More about our weather records

Advertising

Lund weather history for previous 24 hours

 ConditionsComfort  
Time TempWeatherWind HumidityBarometerVisibility
6:20 PM
Sun, May 24
55 °FSunny.13 mph67%30.04 "Hg10 mi
5:50 PM55 °FSunny.12 mph67%30.04 "Hg10 mi
5:20 PM55 °FSunny.14 mph67%30.04 "Hg10 mi
4:50 PM57 °FSunny.14 mph63%30.07 "Hg10 mi
4:20 PM57 °FPassing clouds.10 mph67%30.07 "HgN/A
3:50 PM55 °FPassing clouds.13 mph67%30.07 "HgN/A
3:20 PM55 °FPassing clouds.12 mph67%30.07 "HgN/A
2:50 PM55 °FSunny.12 mph63%30.07 "Hg10 mi
2:20 PM55 °FPassing clouds.9 mph63%30.07 "HgN/A
1:50 PM54 °FPassing clouds.12 mph67%30.09 "HgN/A
1:20 PM54 °FPassing clouds.12 mph63%30.09 "HgN/A
12:50 PM55 °FSunny.12 mph67%30.09 "Hg10 mi
12:20 PM54 °FPassing clouds.12 mph67%30.09 "HgN/A
11:50 AM54 °FPassing clouds.10 mph67%30.09 "HgN/A
11:20 AM52 °FPassing clouds.9 mph72%30.09 "HgN/A
10:50 AM52 °FPassing clouds.8 mph67%30.09 "HgN/A
10:20 AM52 °FSunny.8 mph67%30.09 "Hg10 mi
9:50 AM50 °FPassing clouds.8 mph71%30.09 "HgN/A
9:20 AM48 °FScattered clouds.9 mph76%30.09 "HgN/A
8:50 AM48 °FPartly sunny.9 mph71%30.09 "HgN/A
8:20 AM48 °FPartly sunny.10 mph71%30.09 "HgN/A
7:50 AM46 °FBroken clouds.10 mph82%30.09 "HgN/A
7:20 AM46 °FSunny.8 mph82%30.09 "Hg10 mi
6:50 AM46 °FSunny.8 mph82%30.09 "Hg10 mi
6:20 AM45 °FPassing clouds.7 mph87%30.07 "HgN/A
5:50 AM43 °FSunny.6 mph87%30.07 "Hg10 mi
5:20 AM41 °FClear.6 mph93%30.07 "Hg10 mi
4:50 AM43 °FClear.6 mph87%30.07 "Hg10 mi
4:20 AM45 °FClear.6 mph87%30.07 "Hg10 mi
3:50 AM43 °FClear.6 mph93%30.07 "Hg10 mi
3:20 AM45 °FClear.6 mph87%30.07 "Hg10 mi
2:50 AM45 °FClear.7 mph87%30.07 "Hg10 mi
2:20 AM45 °FClear.9 mph87%30.07 "Hg10 mi
1:50 AM45 °FClear.7 mph87%30.09 "Hg10 mi
1:20 AM46 °FClear.6 mph82%30.09 "Hg10 mi
12:50 AM46 °FClear.6 mph82%30.09 "Hg10 mi
12:20 AM46 °FClear.6 mph82%30.09 "Hg10 mi
11:50 PM
Sat, May 23
48 °FPassing clouds.6 mph76%30.09 "HgN/A
11:20 PM48 °FOvercast.6 mph76%30.09 "HgN/A
10:50 PM48 °FPassing clouds.6 mph76%30.09 "HgN/A
10:20 PM48 °FPassing clouds.6 mph76%30.09 "HgN/A
9:50 PM50 °FScattered clouds.7 mph71%30.09 "HgN/A
9:20 PM52 °FPartly sunny.8 mph67%30.09 "HgN/A
8:50 PM52 °FPartly sunny.9 mph72%30.07 "HgN/A
8:20 PM52 °FScattered clouds.8 mph72%30.07 "HgN/A
7:50 PM54 °FScattered clouds.12 mph63%30.07 "HgN/A
7:20 PM54 °FScattered clouds.13 mph63%30.07 "HgN/A
Weather by CustomWeather, © 2015

See weather overviewHow to use our weather pages